Regional Weather Roundup
Issued by NWS

Home | Current Version | Previous Version | Text Only | Print | Product List | Glossary Off
Versions: 1 2 3 4 5 6 7 8 9 10 11 12 13 14 15 16 17 18 19 20 21 22 23 24 25 26 27

000
ASUS45 KBOU 230206
RWRCO

WEATHER ROUNDUP FOR COLORADO
NATIONAL WEATHER SERVICE DENVER/BOULDER CO
800 PM MDT TUE APR 22 2014

NOTE: "FAIR" INDICATES FEW OR NO CLOUDS BELOW 12000 FEET WITH NO
SIGNIFICANT WEATHER AND/OR OBSTRUCTIONS TO VISIBILITY.

COZ001>005-013-030-031-230300-
...NORTHWEST COLORADO...

CITY           SKY/WX    TMP DP  RH WIND       PRES   REMARKS
CRAIG          CLOUDY    60  30  32 S7        29.70F
HAYDEN         CLOUDY    57  36  44 SE9       29.76F
MEEKER         CLOUDY    57  35  43 CALM      29.71F
MOUNT WERNER   NOT AVBL
STEAMBOAT SPGS CLOUDY    56  31  38 E7        29.76F
WALDEN         CLOUDY    50  32  50 SE8       29.84F
$$

COZ006>008-011-230300-
...WEST CENTRAL VALLEYS...

CITY           SKY/WX    TMP DP  RH WIND       PRES   REMARKS
GRAND JUNCTION CLOUDY    67  29  24 VRB3      29.62F
MONTROSE       MOCLDY    67  31  26 SE12      29.75F
EAGLE          CLOUDY    63  30  29 CALM      29.79F
RIFLE          CLOUDY    67  30  25 S24       29.72R
DELTA          NOT AVBL
NUCLA          NOT AVBL
$$

COZ017>023-064>068-230300-
...SOUTHWEST COLORADO...

CITY           SKY/WX    TMP DP  RH WIND       PRES   REMARKS
DURANGO        CLOUDY    67  18  15 SW12G23   29.86F
CORTEZ         MOCLDY    68  26  20 SW17      29.80S
PAGOSA SPRINGS CLOUDY    60  25  26 CALM      29.94F
TELLURIDE      CLOUDY    54  27  35 S5        29.95S
WOLF CREEK PAS CLOUDY    36  28  75 SW32G59   30.13R
$$

COZ009-010-012-014-032>034-037-058>063-230300-
...CENTRAL COLORADO...

CITY           SKY/WX    TMP DP  RH WIND       PRES   REMARKS
ASPEN          CLOUDY    52  34  50 S8        29.85F
BUENA VISTA    CLOUDY    54  29  39 S3        29.91F
COPPER MTN     CLOUDY    37  28  70 S20G32    30.09F
BERTHOUD PASS  LGT SNOW  30  21  69 SE6       30.12F WCI  24
COTTONWOOD PAS CLOUDY    50  28  43 SW5       30.01S
GUNNISON       CLOUDY    54  32  43 CALM      29.94F
KREMMLING      CLOUDY    52  32  46 CALM      29.83F
LEADVILLE      CLOUDY    44  27  51 SW3       29.99F
MONARCH PASS   CLOUDY    36  28  75 SW26G37   30.23R
SALIDA         CLOUDY    61  30  31 SW21G37   29.98R
SUNLIGHT       CLOUDY    41  32  70 CALM      30.02S
WILKERSON PASS MOCLDY    37  30  75 S7        30.09S
$$

COZ069>075-230300-
...SAN LUIS VALLEY/SANGRE DE CRISTO MOUNTAINS...

CITY           SKY/WX    TMP DP  RH WIND       PRES   REMARKS
ALAMOSA        MOCLDY    58  31  35 SW8       29.94F
LA VETA PASS   PTCLDY    45  28  53 SW10G22   30.06S
SAGUACHE       CLOUDY    54  32  43 NW5       29.96S
$$

COZ035-036-038>040-230300-
...NORTHERN COLORADO FRONT RANGE...

CITY           SKY/WX    TMP DP  RH WIND       PRES   REMARKS
DENVER INTL AP MOCLDY    60  36  40 S8        29.72F
DMNS CITY PARK   N/A     63  47  57 S2        29.71S
AURORA         MOCLDY    61  36  39 S14       29.74F
FRONT RANGE AP MOCLDY    61  39  44 CALM      29.73F
ERIE MUNI ARPT CLOUDY    60  43  54 CALM      29.70S
BOULDER MUN AP CLOUDY    66  34  30 CALM      29.70S
CENTENNIAL     MOCLDY    66  32  28 SW15G23   29.74F
BROOMFIELD     CLOUDY    66  32  28 CALM      29.72F
FORT COLLINS   CLOUDY    64  36  34 S8        29.70S
LONGMONT       NOT AVBL
$$

COZ041-046-047-076>085-087-088-230300-
...PIKES PEAK/PALMER DIVIDE AND SOUTHERN FOOTHILLS...

CITY           SKY/WX    TMP DP  RH WIND       PRES   REMARKS
COLO. SPRINGS  MOCLDY    63  31  30 S9        29.80S
A. F. ACADEMY  MOCLDY    65  30  27 SE8       29.80F
ELLICOTT       NOT AVBL
FALCON         MOCLDY    59  35  40 S10       29.84S
FORT CARSON    MOCLDY    66  31  27 SW10      29.77F
LIMON          MOCLDY    60  37  42 SE9       29.76F
MONUMENT HILL  MOCLDY    50  36  57 S6        29.83F
TRINIDAD       MOCLDY    67  38  34 S24G36    29.83R
$$

COZ042>045-048>051-090-091-230300-
...NORTHEAST COLORADO...

CITY           SKY/WX    TMP DP  RH WIND       PRES   REMARKS
GREELEY ARPT   CLOUDY    63  37  39 S6        29.67F
AKRON          CLOUDY    69  36  29 S10G24    29.70S
BURLINGTON     MOCLDY    67  41  38 S18       29.75R
WRAY           MOCLDY    73  39  28 S12       29.68R
STERLING       NOT AVBL
HOLYOKE        NOT AVBL
FORT MORGAN    NOT AVBL
$$

COZ086-089-092>099-230300-
...SOUTHEAST COLORADO...

CITY           SKY/WX    TMP DP  RH WIND       PRES   REMARKS
PUEBLO         MOCLDY    70  38  31 S10       29.72F
LA JUNTA       MOCLDY    70  43  37 S13       29.74S
LAMAR          CLOUDY    66  46  48 S15       29.73F
SPRINGFIELD      N/A     57  50  77 S10       29.81F
$$



USA.gov is the U.S. government's official web portal to all federal, state and local government web resources and services.